Regional Weather Roundup
Issued by NWS Upton, NY

Current Version | Previous Version | Graphics & Text | Print | Product List | Glossary Off
Versions: 1 2 3 4 5 6 7 8 9 10 11 12 13 14 15 16 17 18 19 20 21 22 23 24 25 26 27 28 29 30 31 32 33 34 35 36 37 38 39 40 41 42 43 44 45 46 47 48 49 50

656
ASUS41 KOKX 301205
RWROKX

REGIONAL WEATHER ROUNDUP
NATIONAL WEATHER SERVICE NEW YORK NY
800 AM EDT MON MAY 30 2016

NOTE: "FAIR" INDICATES FEW OR NO CLOUDS BELOW 12,000 FEET WITH NO
SIGNIFICANT WEATHER AND/OR OBSTRUCTIONS TO VISIBILITY.

NYZ071-072-176-178-NJZ106-104-301300-
NEW YORK CITY METRO AREA


CITY           SKY/WX    TMP DP  RH WIND       PRES   REMARKS
CENTRAL PARK   CLOUDY    68  66  93 VRB3      30.02R FOG
LAGUARDIA APRT CLOUDY    71  71 100 SW5       29.98R
KENNEDY INTL   LGT RAIN  65  63  93 S6        30.00S VSB 1/2
NEWARK/LIBERTY CLOUDY    70  69  97 W6        29.99R
BRNX BOT. GARD   N/A     70  68  94 W3        30.01S
TETERBORO      CLOUDY    69  64  84 NW5       29.98R FOG
$$

NYZ177-179-078>081-301300-
LONG ISLAND NEW YORK

CITY           SKY/WX    TMP DP  RH WIND       PRES   REMARKS
FARMINGDALE    LGT RAIN  67  66  97 SW9       30.00R
ISLIP          FOG       67  66  97 SW12      30.00S VSB 1/8
SHIRLEY        FOG       68  67  96 S13       30.01R VSB 1/4
RIVERHEAD        N/A     68  68 100 SW1       29.99S
WESTHAMPTON    FOG       65  64  97 S10G21    30.02R VSB 1/4
EAST HAMPTON   HVY RAIN  64  64  99 S9G16     30.01R VSB 3/4
MONTAUK POINT    N/A     65  65 100 SW6       30.03R
$$

NYZ052-065-067-301300-
HUDSON VALLEY

CITY           SKY/WX    TMP DP  RH WIND       PRES   REMARKS
WHITE PLAINS   CLOUDY    68  67  96 CALM      29.99S FOG
NEWBURGH       LGT RAIN  64  64 100 CALM      30.02S FOG
MONTGOMERY     LGT RAIN  65  63  93 SW3       30.01S
POUGHKEEPSIE   LGT RAIN  65  62  90 CALM      30.00S FOG
ALBANY         CLOUDY    67  62  84 S9        29.98R
$$

NJZ001-105-106-008-010-013-015-019>022-104-301300-
NEW JERSEY

CITY           SKY/WX    TMP DP  RH WIND       PRES   REMARKS
NEWARK/LIBERTY CLOUDY    70  69  97 W6        29.99R
TETERBORO      CLOUDY    69  64  84 NW5       29.98R FOG
CALDWELL       LGT RAIN  68  64  87 CALM      30.01R
MORRISTOWN     CLOUDY    70  68  94 CALM      30.01R
SOMERVILLE     CLOUDY    70  67  90 W3        29.99S
SUSSEX         CLOUDY    65  63  93 CALM      30.02S
ANDOVER          N/A     66  63  90 CALM      30.02S
TRENTON        LGT RAIN  69  67  93 NW3       30.00S FOG
MILLVILLE      CLOUDY    73  71  93 W5        30.01R
ATLANTIC CITY  RAIN      72  71  97 S5        30.02R FOG
WRIGHTSTOWN    CLOUDY    70  69  97 W3        29.99R
TOMS RIVER     CLOUDY   N/A N/A N/A SW7       30.01R
BELMAR         LGT RAIN  70  70 100 SW3       30.02R FOG
$$

PAZ047>061-062-071-301300-
EASTERN PENNSYLVANIA

CITY           SKY/WX    TMP DP  RH WIND       PRES   REMARKS
PHILADELPHIA   CLOUDY    71  68  90 NW6       30.02R
ALLENTOWN      CLOUDY    69  64  84 CALM      30.02S
SCRANTON       CLOUDY    65  62  90 CALM      30.04R
$$

CTZ002-004>006-009-010-012-RIZ004-006-007-MAZ004-011-015-301300-
SOUTHERN NEW ENGLAND
 IN CT

CITY           SKY/WX    TMP DP  RH WIND       PRES   REMARKS
BRADLEY INTL   LGT RAIN  64  62  93 CALM      29.99S FOG
HARTFORD       LGT RAIN  70  67  90 S5        29.99S
DANBURY        CLOUDY    66  63  90 NE6       30.01S
WTRBRY/OXFORD  LGT RAIN  64  61  88 S3        30.02R FOG
BRIDGEPORT     LGT RAIN  66  64  93 E5        29.98F FOG
MERIDEN        LGT RAIN  69  66  90 S3        29.99S
NEW HAVEN      LGT RAIN  64  63  96 E7        29.99S VSB 3/4
CHESTER        CLOUDY    66  66 100 CALM      30.00S FOG
GROTON         LGT RAIN  64  64 100 CALM      30.00S
WILLIMANTIC    CLOUDY    64  61  90 CALM      30.01S

 IN RI

CITY           SKY/WX    TMP DP  RH WIND       PRES   REMARKS
PROVIDENCE     LGT RAIN  58  56  93 CALM      30.03S FOG
BLOCK ISLAND   LGT RAIN  64  64 100 SW14G21   30.03R VSB 1/4
WESTERLY       LGT RAIN  64  62  93 CALM      30.01F FOG

 IN MA

CITY           SKY/WX    TMP DP  RH WIND       PRES   REMARKS
BOSTON         RAIN      54  53  97 SE3       30.03S
WORCESTER      LGT RAIN  55  54  96 CALM      30.02F FOG
WESTFIELD      LGT RAIN  62  60  93 N5        30.00R FOG
PROVINCETOWN   CLOUDY    55  55 100 NW8       30.04R
NANTUCKET      LGT RAIN  62  61  96 S12       30.04S VSB 1/2
$$

ANZ330-335-338-340-345-350-353-355-301300-
COASTAL MARINE OBSERVATIONS


STATION/POSITION TIME  SKY/WX   TEMP    WIND        PRES    VSBY  WAVE
                                AIR SEA DIR/SP/G                  HT/PER
                 (UTC)          (F)     (DEG/KT/KT) (MB)    (MI)  (FT/S)
NY HARB ENTRANCE 1050            62 58  200/ 14/ 16 1014.9          3/ 6
20S FIRE ISLAND  1050            63 61  190/ 12/ 14 1015.6          3/ 8
GREAT SOUTH BAY  1100            67 71  240/ 12/ 17   N/A
23 SSW MONTAUK P 1150            63 59  200/ 14/ 16 1015.8          3/ 8
15 E BARNEGAT LI 1122               61                N/A           3/ 8
HUDSON CANYON    1050            64 58              1017.0          3/ 6
KINGS POINT      1112            67 59              1015.0
EXECUTION ROCKS  NOT AVBL
CENTRAL LI SOUND 1100            63     100/  6/  8   N/A           0
EASTERN LI SOUND 1100            59 55   70/  8/ 10   N/A
ROBBINS REEF     1100            68     200/  6/  6 1014.8
$$


>>>>>>>>>>>>>>>>>>>>>>>>>>>> KEY <<<<<<<<<<<<<<<<<<<<<<<<<<<
>                                                          <
>     SKY/WX - SKY CONDITION/PRESENT WEATHER               <
>     TMP    - TEMPERATURE IN FAHRENHEIT                   <
>     DP     - DEWPOINT IN FAHRENHEIT                      <
>     RH     - RELATIVE HUMIDITY IN PERCENT                <
>     WIND   - DIRECTION AND SPEED IN MPH                  <
>     PRES   - MEAN SEA LEVEL PRESSURE IN INCHES OF HG     <
>     WCI    - WIND CHILL INDEX                            <
>     VSB    - VISIBILITY IN MILES                         <
>     HX     - HEAT INDEX                                  <
>     TC     - TEMPERATURE IN CELSIUS                      <
>     VRB    - VARIABLE WIND DIRECTION                     <
>                                                          <
>>>>>>>>>>>>>>>>>>>>>>>>>>>> KEY <<<<<<<<<<<<<<<<<<<<<<<<<<<






USA.gov is the U.S. government's official web portal to all federal, state and local government web resources and services.